Home   Weather   Saltillo   Past weeks

Flag for Mexico Past Weather in Saltillo, Coahuila de Zaragoza, Mexico — Yesterday and Last 2 Weeks

Now
55 °F

Overcast.


Feels Like: 55 °F
Forecast: 50 / 75 °F
Wind: No wind

Location: Saltillo Airport

Current Time: Jan 16, 2017 at 9:14:35 am

Latest Report: Jan 16, 2017 at 8:40 am


Visibility: 10 mi

Pressure: 30.13 "Hg (24.88 "Hg at 1603m altitude)

Humidity: 44%

Dew Point: 34 °F

Location of SaltilloLocation

Past Weather in Saltillo — Graph

°F

Saltillo Temperature Yesterday

Maximum temperature yesterday: 77 °F (at 11:45 am)
Minimum temperature yesterday: 59 °F (at 6:00 am)
Average temperature yesterday: 68 °F

High & Low Weather Summary for the Past Weeks

 TemperatureHumidityPressure
High84 °F (Jan 11, 12:40 pm)100% (Jan 6, 6:40 am)30.58 "Hg (Jan 6, 6:40 am)
Low27 °F (Jan 7, 6:40 am)22% (Jan 2, 12:40 pm)29.93 "Hg (Jan 5, 3:45 pm)
Average62 °F51%30.20 "Hg
* Reported Jan 1 7:40 am — Jan 16 7:40 am, Saltillo, Weather by CustomWeather, © 2017

Note: Actual official high and low records may vary slightly from our data, if they occured in-between our weather recording intervals... More about our weather records

Advertising

Saltillo Weather History for the Previous 24 Hours

Scroll right to see more
 ConditionsComfort  
Time TempWeatherWind HumidityBarometerVisibility
7:40 am
Mon, Jan 16
52 °FScattered clouds.No wind50%30.11 "Hg10 mi
6:40 am50 °FPassing clouds.6 mph50%30.10 "Hg10 mi
6:00 am48 °FPassing clouds.No wind58%30.10 "Hg10 mi
9:40 pm
Sun, Jan 15
59 °FClear.No wind55%30.00 "Hg10 mi
8:40 pm59 °FClear.No wind55%30.00 "Hg10 mi
7:40 pm61 °FClear.6 mph59%29.99 "Hg10 mi
6:40 pm64 °FClear.7 mph52%29.97 "Hg10 mi
5:40 pm75 °FSunny.12 mph36%29.95 "Hg10 mi
4:40 pm77 °FSunny.16 mph32%29.98 "Hg10 mi
3:40 pm77 °FSunny.23 mph32%29.98 "Hg10 mi
2:40 pm77 °FSunny.23 mph32%30.00 "Hg10 mi
2:00 pm77 °FSunny.23 mph32%29.99 "Hg10 mi
12:45 pm77 °FSunny.23 mph24%30.09 "Hg10 mi
11:45 am77 °FSunny.18 mph24%30.20 "Hg10 mi
10:40 am70 °FSunny.9 mph40%30.20 "Hg10 mi
9:40 am66 °FSunny.14 mph46%30.20 "Hg10 mi
Weather by CustomWeather, © 2017

See weather overviewHow to use our weather pages